Weather in Mykhailivka

Ukraine / Zaporizhia Region     47°57′12″N   35°15′31″E
temp.,
°C
wind,
m/s
gust,
m/s
humid.,
%
clouds,
%
prec.,
mm/h
press.,
hPa
HPBL,
m
31 july, sat
sat3100:00+22nw4106797 0.0 1009210
03:00+21nnw496940 0.0 1009159
06:00+19n35790 0.0 101091
09:00+25n33590 0.0 1011454
12:00+29n34440 0.0 10111912
15:00+30nne33380 0.0 10112172
18:00+30ene234013 0.0 10101762
21:00+25se22480 0.0 101114
1 august, sun
sun100:00+24sse22510 0.0 101111
03:00+22nnw22570 0.0 101213
06:00+22ene11610 0.0 101211
09:00+27e11460 0.0 1012308
12:00+31wnw11345 0.0 10122326
15:00+32nnw223120 0.0 10112671
18:00+32n123217 0.0 10112077
21:00+27se11410 0.0 101111
2 august, mon
mon200:00+25sse11440 0.0 101111
03:00+24wsw33490 0.0 101119
06:00+23w11606 0.0 101211
09:00+28sw22465 0.0 1012338
12:00+33wsw33330 0.0 10111514
15:00+34sw33300 0.0 10092427
18:00+33sw34345 0.0 1009800
21:00+28s33420 0.0 100930
3 august, tue
tue300:00+25wsw36525 0.0 101086
03:00+23wsw225781 0.0 101014
06:00+22w2267100 0.0 101027
09:00+26nw44631 0.0 1011642
12:00+28nnw44550 0.0 10111136
15:00+30wnw5645100 0.0 10111730
18:00+28nw444717 0.0 10111013
21:00+23nnw410520 0.0 1013254
4 august, wed
wed400:00+23n6115083 0.0 1014398
03:00+19nne48640 0.0 1015149
06:00+18nne35715 0.0 101693
09:00+24nne345441 0.0 1017539
12:00+27nne333946 0.0 10172118
15:00+29n333323 0.0 10162644
18:00+28ne333541 0.0 10162109
21:00+24ene22410 0.0 101719